DW8007 Weather Reports


time (UTC)temp
C
wind
direction
speed
KPH
gust
KPH
rain 1hr
cm
rain 24hr
cm
rain mn
cm
humidity
%
barometer
mb
20260504100204 16 274 0.0 1.6 0.00 0.00 0.00 83 1012.3
20260504081703 16 293 0.0 3.2 0.00 0.00 0.00 82 1012.8
20260504081204 16 140 0.0 3.2 0.00 0.00 0.00 82 1012.9
20260504080704 16 70 0.0 1.6 0.00 0.00 0.00 83 1013.0
20260504080203 16 145 0.0 1.6 0.00 0.00 0.00 82 1013.0
20260504070203 16 101 0.0 3.2 0.00 0.00 0.00 81 1013.8
20260504060204 16 135 0.0 1.6 0.00 0.00 0.00 79 1014.6
20260504050203 17 168 0.0 3.2 0.00 0.00 0.00 75 1015.3
20260504045703 17 263 0.0 3.2 0.00 0.00 0.00 75 1015.5
20260504044704 17 266 0.0 3.2 0.00 0.00 0.00 76 1015.4
20260504044204 17 175 1.6 1.6 0.00 0.00 0.00 76 1015.6
20260504043704 17 313 0.0 1.6 0.00 0.00 0.00 76 1015.7
20260504043203 17 121 0.0 1.6 0.00 0.00 0.00 76 1015.7
20260504042204 17 133 0.0 3.2 0.00 0.00 0.00 76 1015.7
20260504041704 17 188 0.0 3.2 0.00 0.00 0.00 76 1015.6
20260504041203 17 132 0.0 3.2 0.00 0.00 0.00 77 1015.9
20260504040704 17 153 0.0 1.6 0.00 0.00 0.00 77 1015.7
20260504040204 17 117 0.0 1.6 0.00 0.00 0.00 76 1015.8
20260504035704 18 348 0.0 3.2 0.00 0.00 0.00 76 1015.9
20260504035204 17 22 0.0 3.2 0.00 0.00 0.00 76 1015.7
20260504034704 17 147 0.0 3.2 0.00 0.00 0.00 77 1015.6
20260504034203 17 173 0.0 1.6 0.00 0.00 0.00 77 1015.5
20260504033704 17 158 0.0 1.6 0.00 0.00 0.00 77 1015.4
20260504033204 17 151 0.0 1.6 0.00 0.00 0.00 77 1015.6
20260504032704 17 139 0.0 1.6 0.00 0.00 0.00 77 1015.7
20260504031704 17 139 0.0 1.6 0.00 0.00 0.00 77 1015.6
20260504031204 17 223 0.0 1.6 0.00 0.00 0.00 77 1015.5
20260504025704 17 144 0.0 1.6 0.00 0.00 0.00 76 1015.4
20260504025204 17 103 0.0 1.6 0.00 0.00 0.00 75 1015.4
20260504024203 18 30 0.0 1.6 0.00 0.00 0.00 74 1015.3
20260504023204 18 147 0.0 3.2 0.00 0.00 0.00 73 1015.2
20260504022703 18 170 0.0 1.6 0.00 0.00 0.00 72 1015.2
20260504022203 18 307 0.0 3.2 0.00 0.00 0.00 71 1014.9
20260504021704 18 342 0.0 4.8 0.00 0.00 0.00 71 1015.0
20260504021204 18 161 1.6 4.8 0.00 0.00 0.00 71 1015.2
20260504020704 18 141 0.0 1.6 0.00 0.00 0.00 71 1015.0
20260504015704 19 313 0.0 3.2 0.00 0.00 0.00 69 1015.0
20260504015204 19 165 1.6 1.6 0.00 0.00 0.00 69 1015.0
20260504014703 19 292 0.0 3.2 0.00 0.00 0.00 68 1015.0
20260504014204 19 81 0.0 3.2 0.00 0.00 0.00 67 1014.9
20260504013204 20 288 0.0 3.2 0.00 0.00 0.00 66 1014.7
20260504012704 20 159 0.0 3.2 0.00 0.00 0.00 66 1015.0
20260504012204 20 150 0.0 1.6 0.00 0.00 0.00 65 1014.8
20260504011703 20 148 0.0 1.6 0.00 0.00 0.00 64 1014.8
20260504011204 21 30 0.0 3.2 0.00 0.00 0.00 63 1014.8
20260504010204 21 349 0.0 4.8 0.00 0.00 0.00 60 1014.7
20260504005703 21 144 0.0 4.8 0.00 0.00 0.00 59 1014.8
20260504004704 22 176 1.6 4.8 0.00 0.00 0.00 56 1014.9
20260504004204 22 165 1.6 8.0 0.00 0.00 0.00 55 1015.0
20260504003704 22 168 1.6 8.0 0.00 0.00 0.00 54 1014.9
20260504003204 22 142 3.2 8.0 0.00 0.00 0.00 53 1015.0
20260504002703 22 162 3.2 8.0 0.00 0.00 0.00 52 1015.0
20260504002204 23 212 3.2 8.0 0.00 0.00 0.00 52 1015.0
20260504001703 23 165 3.2 8.0 0.00 0.00 0.00 51 1015.1
20260504001203 23 117 3.2 8.0 0.00 0.00 0.00 50 1015.1
20260504000704 23 192 1.6 9.7 0.00 0.00 0.00 49 1015.1
20260504000204 23 82 4.8 9.7 0.00 0.00 0.00 48 1015.2
20260503235703 23 160 3.2 9.7 0.00 0.00 0.00 49 1014.9
20260503235204 23 109 3.2 9.7 0.00 0.00 0.00 48 1015.0
20260503234203 24 157 3.2 9.7 0.00 0.00 0.00 48 1015.0
20260503233204 24 144 4.8 9.7 0.00 0.00 0.00 49 1014.8
20260503232704 24 148 3.2 8.0 0.00 0.00 0.00 50 1014.7
20260503232204 24 106 3.2 9.7 0.00 0.00 0.00 50 1015.0
20260503231704 25 167 3.2 11.3 0.00 0.00 0.00 48 1014.9
20260503231204 25 155 4.8 11.3 0.00 0.00 0.00 49 1015.0
20260503230704 25 93 3.2 11.3 0.00 0.00 0.00 49 1015.1
20260503230204 25 145 4.8 11.3 0.00 0.00 0.00 48 1015.0
20260503225704 25 158 3.2 9.7 0.00 0.00 0.00 47 1015.0
20260503225204 25 128 3.2 8.0 0.00 0.00 0.00 46 1015.1
20260503223704 25 171 4.8 8.0 0.00 0.00 0.00 46 1015.3
20260503223204 26 89 3.2 12.9 0.00 0.00 0.00 45 1015.2
20260503222703 26 153 4.8 12.9 0.00 0.00 0.00 43 1015.3
20260503222204 26 105 3.2 9.7 0.00 0.00 0.00 40 1015.4
20260503221704 26 186 4.8 11.3 0.00 0.00 0.00 37 1015.6
20260503221204 25 168 4.8 11.3 0.00 0.00 0.00 39 1015.3
20260503220704 25 89 4.8 11.3 0.00 0.00 0.00 42 1015.6
20260503220204 26 169 3.2 9.7 0.00 0.00 0.00 39 1015.4
20260503215704 25 187 3.2 8.0 0.00 0.00 0.00 43 1015.6
20260503215203 26 111 3.2 12.9 0.00 0.00 0.00 42 1015.7
20260503214703 26 161 4.8 12.9 0.00 0.00 0.00 41 1015.9
20260503214204 26 102 4.8 12.9 0.00 0.00 0.00 43 1016.0
20260503213204 26 112 4.8 14.5 0.00 0.00 0.00 42 1016.0
20260503211704 26 134 4.8 14.5 0.00 0.00 0.00 40 1016.1
20260503211204 26 98 3.2 8.0 0.00 0.00 0.00 40 1016.3
20260503210704 26 120 3.2 9.7 0.00 0.00 0.00 40 1016.5
20260503210204 26 174 4.8 9.7 0.00 0.00 0.00 39 1016.6
20260503205204 26 177 3.2 9.7 0.00 0.00 0.00 37 1016.8
20260503204703 26 132 4.8 14.5 0.00 0.00 0.00 39 1016.7
20260503204204 26 126 4.8 14.5 0.00 0.00 0.00 40 1016.8
20260503203704 26 101 4.8 11.3 0.00 0.00 0.00 41 1016.8
20260503203204 26 164 4.8 11.3 0.00 0.00 0.00 41 1016.9
20260503202703 26 133 4.8 9.7 0.00 0.00 0.00 38 1017.2
20260503202203 26 192 3.2 9.7 0.00 0.00 0.00 37 1017.2
20260503201703 26 164 4.8 9.7 0.00 0.00 0.00 37 1017.3
20260503201204 26 179 4.8 9.7 0.00 0.00 0.00 38 1017.3
20260503200203 26 188 1.6 9.7 0.00 0.00 0.00 39 1017.4
20260503195703 26 93 4.8 11.3 0.00 0.00 0.00 41 1017.5
20260503195204 27 112 4.8 11.3 0.00 0.00 0.00 36 1017.4
20260503194703 27 179 6.4 11.3 0.00 0.00 0.00 37 1017.5
20260503194204 27 184 6.4 9.7 0.00 0.00 0.00 36 1017.5
20260503193704 26 183 4.8 9.7 0.00 0.00 0.00 37 1017.6
20260503193203 26 270 1.6 11.3 0.00 0.00 0.00 36 1017.7
20260503192703 26 142 3.2 14.5 0.00 0.00 0.00 39 1017.8
20260503192204 26 152 6.4 14.5 0.00 0.00 0.00 39 1018.0
20260503191704 26 68 9.7 14.5 0.00 0.00 0.00 38 1018.0
20260503191204 27 138 3.2 9.7 0.00 0.00 0.00 36 1018.0
20260503190703 27 120 3.2 9.7 0.00 0.00 0.00 38 1017.9
20260503190204 26 124 4.8 9.7 0.00 0.00 0.00 37 1018.0
20260503185704 26 160 4.8 9.7 0.00 0.00 0.00 37 1018.2
20260503185204 26 174 6.4 9.7 0.00 0.00 0.00 36 1018.1
20260503184203 26 123 3.2 11.3 0.00 0.00 0.00 42 1018.4
20260503183703 26 71 8.0 11.3 0.00 0.00 0.00 39 1018.3
20260503183203 26 96 3.2 9.7 0.00 0.00 0.00 42 1018.4
20260503182704 26 181 3.2 8.0 0.00 0.00 0.00 39 1018.5
20260503182204 26 150 1.6 8.0 0.00 0.00 0.00 39 1018.6
20260503181203 26 159 3.2 9.7 0.00 0.00 0.00 41 1018.8
20260503180704 26 139 1.6 9.7 0.00 0.00 0.00 41 1018.9
20260503175703 26 104 8.0 12.9 0.00 0.00 0.00 41 1019.0
20260503175203 26 190 4.8 9.7 0.00 0.00 0.00 41 1019.2
20260503174703 25 165 4.8 9.7 0.00 0.00 0.00 42 1019.4
20260503174203 25 137 3.2 9.7 0.00 0.00 0.00 42 1019.3
20260503173204 26 99 4.8 9.7 0.00 0.00 0.00 44 1019.5
20260503172704 25 178 4.8 9.7 0.00 0.00 0.00 42 1019.5
20260503172204 25 14 1.6 9.7 0.00 0.00 0.00 43 1019.6
20260503171704 25 121 3.2 9.7 0.00 0.00 0.00 41 1019.8
20260503171204 26 177 4.8 9.7 0.00 0.00 0.00 44 1019.8
20260503170703 25 179 4.8 12.9 0.00 0.00 0.00 43 1019.8
20260503170204 25 180 4.8 12.9 0.00 0.00 0.00 43 1019.9
20260503150703 24 159 3.2 4.8 0.00 0.00 0.00 50 1020.2
20260503150203 23 179 3.2 4.8 0.00 0.00 0.00 50 1020.0
20260503140204 19 236 1.6 4.8 0.00 0.00 0.00 73 1019.6
20260503131204 16 324 1.6 4.8 0.00 0.00 0.00 80 1019.3
20260503130703 16 308 1.6 3.2 0.00 0.00 0.00 81 1019.3
20260503130204 16 301 1.6 4.8 0.00 0.00 0.00 82 1019.3
20260503120204 13 7 0.0 3.2 0.00 0.00 0.00 89 1018.6
20260503110704 12 235 0.0 1.6 0.00 0.00 0.00 93 1018.0
20260503110204 12 230 0.0 1.6 0.00 0.00 0.00 93 1018.1